Private Wetterstation Sandau
Wetterdaten: Mittwoch, 22.08.2012
Datum Zeit Temp. A. Feuchte A. Luftdruck Regen Wind Richtung Richtung Taupunkt Windchill
22.08.2012 00:01 19,9 C 83 % 1012,9 hPa 1,0 l/m 7,6 km/h (2 Bft) O-SO 112 16,9 C 19,9 C
22.08.2012 00:06 19,7 C 84 % 1013,1 hPa 0,5 l/m 4,7 km/h (1 Bft) NO 45 16,9 C 19,7 C
22.08.2012 00:11 19,6 C 84 % 1013,0 hPa 0,0 l/m 3,6 km/h (1 Bft) O-NO 67 16,8 C 19,6 C
22.08.2012 00:16 19,4 C 85 % 1013,0 hPa 0,0 l/m 3,6 km/h (1 Bft) O-NO 67 16,8 C 19,4 C
22.08.2012 00:21 19,3 C 85 % 1012,9 hPa 0,0 l/m 4,7 km/h (1 Bft) O-NO 67 16,7 C 19,3 C
22.08.2012 00:26 19,3 C 86 % 1012,7 hPa 0,0 l/m 6,8 km/h (2 Bft) O-SO 112 16,9 C 19,3 C
22.08.2012 00:31 19,3 C 86 % 1012,7 hPa 0,0 l/m 8,3 km/h (2 Bft) O-SO 112 16,9 C 19,3 C
22.08.2012 00:36 19,2 C 87 % 1012,7 hPa 0,0 l/m 2,5 km/h (1 Bft) O-NO 67 17,0 C 19,2 C
22.08.2012 00:41 19,1 C 87 % 1012,7 hPa 0,0 l/m 4,7 km/h (1 Bft) O 90 16,9 C 19,1 C
22.08.2012 00:46 19,1 C 88 % 1012,6 hPa 0,0 l/m 10,8 km/h (2 Bft) O-SO 112 17,1 C 19,1 C
22.08.2012 00:51 19,1 C 88 % 1012,7 hPa 0,0 l/m 2,9 km/h (1 Bft) SO 135 17,1 C 19,1 C
22.08.2012 00:56 19,1 C 88 % 1012,5 hPa 0,0 l/m 4,0 km/h (1 Bft) O-SO 112 17,1 C 19,1 C
22.08.2012 01:01 19,1 C 88 % 1012,4 hPa 0,0 l/m 6,1 km/h (2 Bft) O-SO 112 17,1 C 19,1 C
22.08.2012 01:06 19,0 C 88 % 1012,4 hPa 0,0 l/m 2,9 km/h (1 Bft) O 90 17,0 C 19,0 C
22.08.2012 01:11 19,0 C 88 % 1012,4 hPa 0,0 l/m 2,5 km/h (1 Bft) O-NO 67 17,0 C 19,0 C
22.08.2012 01:16 18,9 C 88 % 1012,2 hPa 0,0 l/m 6,1 km/h (2 Bft) O 90 16,9 C 18,9 C
22.08.2012 01:21 18,9 C 89 % 1012,2 hPa 0,0 l/m 6,1 km/h (2 Bft) O-NO 67 17,0 C 18,9 C
22.08.2012 01:26 18,9 C 89 % 1012,1 hPa 0,0 l/m 2,9 km/h (1 Bft) O 90 17,0 C 18,9 C
22.08.2012 01:31 18,8 C 89 % 1012,1 hPa 0,0 l/m 3,2 km/h (1 Bft) O-NO 67 16,9 C 18,8 C
22.08.2012 01:36 18,8 C 89 % 1012,1 hPa 0,0 l/m 0,0 km/h (0 Bft) O-NO 67 16,9 C 18,8 C
22.08.2012 01:41 18,8 C 89 % 1012,2 hPa 0,0 l/m 0,0 km/h (0 Bft) O-NO 67 16,9 C 18,8 C
22.08.2012 01:46 18,8 C 89 % 1012,2 hPa 0,0 l/m 3,6 km/h (1 Bft) O-NO 67 16,9 C 18,8 C
22.08.2012 01:51 18,8 C 89 % 1012,0 hPa 0,0 l/m 1,8 km/h (1 Bft) O-NO 67 16,9 C 18,8 C
22.08.2012 01:56 18,7 C 89 % 1012,1 hPa 0,0 l/m 3,6 km/h (1 Bft) SO 135 16,8 C 18,7 C
22.08.2012 02:01 18,6 C 89 % 1012,0 hPa 0,0 l/m 2,2 km/h (1 Bft) SO 135 16,7 C 18,6 C
22.08.2012 02:06 18,6 C 89 % 1011,9 hPa 0,0 l/m 1,4 km/h (1 Bft) SO 135 16,7 C 18,6 C
22.08.2012 02:11 18,6 C 89 % 1011,7 hPa 0,0 l/m 0,0 km/h (0 Bft) O-SO 112 16,7 C 18,6 C
22.08.2012 02:16 18,5 C 89 % 1011,7 hPa 0,0 l/m 0,0 km/h (0 Bft) O-SO 112 16,7 C 18,5 C
22.08.2012 02:21 18,5 C 89 % 1011,6 hPa 0,0 l/m 0,0 km/h (0 Bft) O-SO 112 16,7 C 18,5 C
22.08.2012 02:26 18,5 C 89 % 1011,4 hPa 0,0 l/m 0,0 km/h (0 Bft) O-SO 112 16,7 C 18,5 C
22.08.2012 02:31 18,4 C 89 % 1011,5 hPa 0,0 l/m 0,0 km/h (0 Bft) O-SO 112 16,6 C 18,4 C
22.08.2012 02:36 18,4 C 89 % 1011,3 hPa 0,0 l/m 0,0 km/h (0 Bft) O-SO 112 16,6 C 18,4 C
22.08.2012 02:41 18,4 C 89 % 1011,3 hPa 0,0 l/m 2,5 km/h (1 Bft) SO 135 16,6 C 18,4 C
22.08.2012 02:46 18,4 C 89 % 1011,3 hPa 0,0 l/m 0,0 km/h (0 Bft) SO 135 16,6 C 18,4 C
22.08.2012 02:51 18,4 C 89 % 1011,3 hPa 0,0 l/m 1,8 km/h (1 Bft) SO 135 16,6 C 18,4 C
22.08.2012 02:56 18,4 C 89 % 1011,1 hPa 0,0 l/m 0,0 km/h (0 Bft) S-SO 157 16,6 C 18,4 C
22.08.2012 03:01 18,4 C 89 % 1011,0 hPa 0,0 l/m 1,8 km/h (1 Bft) SO 135 16,6 C 18,4 C
22.08.2012 03:06 18,4 C 89 % 1011,0 hPa 0,0 l/m 2,9 km/h (1 Bft) SO 135 16,6 C 18,4 C
22.08.2012 03:11 18,4 C 89 % 1011,1 hPa 0,0 l/m 2,9 km/h (1 Bft) SO 135 16,6 C 18,4 C
22.08.2012 03:16 18,3 C 89 % 1011,0 hPa 0,0 l/m 1,8 km/h (1 Bft) SO 135 16,5 C 18,3 C
22.08.2012 03:21 18,3 C 89 % 1011,1 hPa 0,0 l/m 0,0 km/h (0 Bft) SO 135 16,5 C 18,3 C
22.08.2012 03:26 18,2 C 89 % 1011,0 hPa 0,0 l/m 0,0 km/h (0 Bft) SO 135 16,4 C 18,2 C
22.08.2012 03:31 18,2 C 89 % 1011,0 hPa 0,0 l/m 0,0 km/h (0 Bft) SO 135 16,4 C 18,2 C
22.08.2012 03:36 18,1 C 89 % 1010,9 hPa 0,0 l/m 0,0 km/h (0 Bft) SO 135 16,3 C 18,1 C
22.08.2012 03:41 18,1 C 89 % 1010,9 hPa 0,0 l/m 0,0 km/h (0 Bft) SO 135 16,3 C 18,1 C
22.08.2012 03:46 18,1 C 89 % 1010,7 hPa 0,0 l/m 0,0 km/h (0 Bft) SO 135 16,3 C 18,1 C
22.08.2012 03:51 18,1 C 89 % 1010,9 hPa 0,0 l/m 0,0 km/h (0 Bft) SO 135 16,3 C 18,1 C
22.08.2012 03:56 18,1 C 89 % 1011,0 hPa 0,0 l/m 0,0 km/h (0 Bft) SO 135 16,3 C 18,1 C
22.08.2012 04:01 18,2 C 89 % 1010,8 hPa 0,0 l/m 1,4 km/h (1 Bft) SO 135 16,4 C 18,2 C
22.08.2012 04:06 18,2 C 89 % 1011,0 hPa 0,0 l/m 0,0 km/h (0 Bft) SO 135 16,4 C 18,2 C
22.08.2012 04:11 18,2 C 90 % 1011,1 hPa 0,0 l/m 0,0 km/h (0 Bft) SO 135 16,5 C 18,2 C
22.08.2012 04:16 18,3 C 90 % 1011,1 hPa 0,0 l/m 1,4 km/h (1 Bft) SW 225 16,6 C 18,3 C
22.08.2012 04:21 18,4 C 90 % 1011,0 hPa 0,0 l/m 0,0 km/h (0 Bft) SW 225 16,7 C 18,4 C
22.08.2012 04:26 18,4 C 90 % 1010,7 hPa 0,0 l/m 0,0 km/h (0 Bft) SW 225 16,7 C 18,4 C
22.08.2012 04:31 18,4 C 90 % 1010,9 hPa 0,0 l/m 5,0 km/h (1 Bft) W 270 16,7 C 18,4 C
22.08.2012 04:36 18,5 C 90 % 1011,0 hPa 0,0 l/m 1,4 km/h (1 Bft) W-SW 247 16,8 C 18,5 C
22.08.2012 04:41 18,5 C 90 % 1010,9 hPa 0,0 l/m 0,0 km/h (0 Bft) S-SW 202 16,8 C 18,5 C
22.08.2012 04:46 18,6 C 90 % 1010,9 hPa 0,0 l/m 3,6 km/h (1 Bft) SW 225 16,9 C 18,6 C
22.08.2012 04:51 18,6 C 90 % 1010,8 hPa 0,0 l/m 3,6 km/h (1 Bft) S-SW 202 16,9 C 18,6 C
22.08.2012 04:56 18,6 C 90 % 1010,7 hPa 0,0 l/m 1,4 km/h (1 Bft) W-SW 247 16,9 C 18,6 C
22.08.2012 05:01 18,6 C 90 % 1010,4 hPa 0,0 l/m 4,0 km/h (1 Bft) W 270 16,9 C 18,6 C
22.08.2012 05:06 18,6 C 90 % 1010,3 hPa 0,0 l/m 1,1 km/h (1 Bft) W-SW 247 16,9 C 18,6 C
22.08.2012 05:11 18,6 C 90 % 1010,3 hPa 0,0 l/m 1,4 km/h (1 Bft) W-SW 247 16,9 C 18,6 C
22.08.2012 05:16 18,6 C 90 % 1010,3 hPa 0,0 l/m 6,1 km/h (2 Bft) W 270 16,9 C 18,6 C
22.08.2012 05:21 18,6 C 90 % 1010,3 hPa 0,0 l/m 4,3 km/h (1 Bft) W-SW 247 16,9 C 18,6 C
22.08.2012 05:26 18,6 C 91 % 1010,3 hPa 0,0 l/m 5,8 km/h (2 Bft) W 270 17,1 C 18,6 C
22.08.2012 05:31 18,5 C 91 % 1010,5 hPa 0,0 l/m 5,8 km/h (2 Bft) W 270 17,0 C 18,5 C
22.08.2012 05:36 18,5 C 91 % 1010,6 hPa 0,0 l/m 1,8 km/h (1 Bft) SW 225 17,0 C 18,5 C
22.08.2012 05:41 18,5 C 91 % 1010,6 hPa 0,0 l/m 5,0 km/h (1 Bft) S-SW 202 17,0 C 18,5 C
22.08.2012 05:46 18,5 C 91 % 1010,6 hPa 0,0 l/m 8,3 km/h (2 Bft) W-SW 247 17,0 C 18,5 C
22.08.2012 05:51 18,5 C 91 % 1010,8 hPa 0,0 l/m 6,1 km/h (2 Bft) S-SW 202 17,0 C 18,5 C
22.08.2012 05:56 18,5 C 91 % 1010,8 hPa 0,0 l/m 4,7 km/h (1 Bft) W-SW 247 17,0 C 18,5 C
22.08.2012 06:01 18,5 C 91 % 1010,8 hPa 0,0 l/m 14,0 km/h (3 Bft) W 270 17,0 C 18,5 C
22.08.2012 06:06 18,5 C 91 % 1010,7 hPa 0,0 l/m 6,5 km/h (2 Bft) SW 225 17,0 C 18,5 C
22.08.2012 06:11 18,6 C 92 % 1010,8 hPa 0,0 l/m 9,4 km/h (2 Bft) W-SW 247 17,3 C 18,6 C
22.08.2012 06:16 18,5 C 91 % 1010,8 hPa 0,0 l/m 7,6 km/h (2 Bft) W 270 17,0 C 18,5 C
22.08.2012 06:21 18,5 C 91 % 1010,8 hPa 0,0 l/m 5,4 km/h (1 Bft) SW 225 17,0 C 18,5 C
22.08.2012 06:26 18,5 C 92 % 1011,1 hPa 0,0 l/m 5,0 km/h (1 Bft) W-SW 247 17,2 C 18,5 C
22.08.2012 06:31 18,5 C 92 % 1010,9 hPa 0,0 l/m 19,1 km/h (3 Bft) W 270 17,2 C 18,5 C
22.08.2012 06:36 18,5 C 92 % 1011,0 hPa 0,0 l/m 6,1 km/h (2 Bft) SW 225 17,2 C 18,5 C
22.08.2012 06:41 18,5 C 92 % 1011,1 hPa 0,0 l/m 4,3 km/h (1 Bft) W-SW 247 17,2 C 18,5 C
22.08.2012 06:46 18,5 C 92 % 1011,2 hPa 0,0 l/m 4,7 km/h (1 Bft) W-SW 247 17,2 C 18,5 C
22.08.2012 06:51 18,5 C 92 % 1011,3 hPa 0,0 l/m 8,6 km/h (2 Bft) W-SW 247 17,2 C 18,5 C
22.08.2012 06:56 18,5 C 92 % 1011,2 hPa 0,0 l/m 10,8 km/h (2 Bft) W 270 17,2 C 18,5 C
22.08.2012 07:01 18,5 C 92 % 1011,2 hPa 0,0 l/m 12,2 km/h (2 Bft) S-SW 202 17,2 C 18,5 C
22.08.2012 07:06 18,6 C 92 % 1011,3 hPa 0,0 l/m 12,2 km/h (2 Bft) W-SW 247 17,3 C 18,6 C
22.08.2012 07:11 18,7 C 92 % 1011,4 hPa 0,0 l/m 14,0 km/h (3 Bft) W-SW 247 17,4 C 18,7 C
22.08.2012 07:16 18,7 C 91 % 1011,4 hPa 0,0 l/m 9,4 km/h (2 Bft) W 270 17,2 C 18,7 C
22.08.2012 07:21 18,7 C 91 % 1011,5 hPa 0,0 l/m 23,0 km/h (4 Bft) W-SW 247 17,2 C 18,7 C
22.08.2012 07:26 18,7 C 91 % 1011,6 hPa 0,0 l/m 3,2 km/h (1 Bft) W-SW 247 17,2 C 18,7 C
22.08.2012 07:31 18,8 C 91 % 1011,4 hPa 0,0 l/m 3,6 km/h (1 Bft) W-NW 292 17,3 C 18,8 C
22.08.2012 07:36 18,8 C 91 % 1011,6 hPa 0,0 l/m 17,3 km/h (3 Bft) W-SW 247 17,3 C 18,8 C
22.08.2012 07:41 18,8 C 91 % 1011,5 hPa 0,0 l/m 19,1 km/h (3 Bft) W 270 17,3 C 18,8 C
22.08.2012 07:46 18,9 C 91 % 1011,6 hPa 0,0 l/m 8,6 km/h (2 Bft) W 270 17,4 C 18,9 C
22.08.2012 07:51 18,9 C 90 % 1011,6 hPa 0,0 l/m 7,2 km/h (2 Bft) W-SW 247 17,2 C 18,9 C
22.08.2012 07:56 18,9 C 90 % 1011,6 hPa 0,0 l/m 23,4 km/h (4 Bft) W-SW 247 17,2 C 18,9 C
22.08.2012 08:01 19,0 C 91 % 1011,8 hPa 0,0 l/m 3,6 km/h (1 Bft) W 270 17,5 C 19,0 C
22.08.2012 08:06 19,0 C 90 % 1011,7 hPa 0,0 l/m 2,9 km/h (1 Bft) W-SW 247 17,3 C 19,0 C
22.08.2012 08:11 19,0 C 90 % 1011,6 hPa 0,0 l/m 10,4 km/h (2 Bft) W-NW 292 17,3 C 19,0 C
22.08.2012 08:16 19,0 C 89 % 1011,5 hPa 0,0 l/m 12,2 km/h (2 Bft) SW 225 17,1 C 19,0 C
22.08.2012 08:21 18,9 C 89 % 1011,8 hPa 0,0 l/m 10,4 km/h (2 Bft) W-SW 247 17,0 C 18,9 C
22.08.2012 08:26 18,9 C 89 % 1011,8 hPa 0,0 l/m 16,9 km/h (3 Bft) W 270 17,0 C 18,9 C
22.08.2012 08:31 18,9 C 89 % 1012,0 hPa 0,0 l/m 11,2 km/h (2 Bft) W-NW 292 17,0 C 18,9 C
22.08.2012 08:36 19,0 C 88 % 1012,0 hPa 0,0 l/m 1,8 km/h (1 Bft) W-SW 247 17,0 C 19,0 C
22.08.2012 08:41 19,0 C 88 % 1012,1 hPa 0,0 l/m 8,6 km/h (2 Bft) W 270 17,0 C 19,0 C
22.08.2012 08:46 19,0 C 88 % 1012,1 hPa 0,0 l/m 12,2 km/h (2 Bft) W-SW 247 17,0 C 19,0 C
22.08.2012 08:51 19,1 C 88 % 1012,2 hPa 0,0 l/m 5,0 km/h (1 Bft) W 270 17,1 C 19,1 C
22.08.2012 08:56 19,2 C 87 % 1012,1 hPa 0,0 l/m 7,6 km/h (2 Bft) W-SW 247 17,0 C 19,2 C
22.08.2012 09:01 19,4 C 87 % 1012,1 hPa 0,0 l/m 16,9 km/h (3 Bft) W-NW 292 17,2 C 19,4 C
22.08.2012 09:06 19,4 C 86 % 1012,2 hPa 0,0 l/m 11,2 km/h (2 Bft) W 270 17,0 C 19,4 C
22.08.2012 09:11 19,4 C 84 % 1012,4 hPa 0,0 l/m 5,8 km/h (2 Bft) W 270 16,6 C 19,4 C
22.08.2012 09:16 19,4 C 84 % 1012,1 hPa 0,0 l/m 15,5 km/h (3 Bft) W 270 16,6 C 19,4 C
22.08.2012 09:21 19,6 C 84 % 1012,2 hPa 0,0 l/m 14,4 km/h (3 Bft) W-NW 292 16,8 C 19,6 C
22.08.2012 09:26 19,6 C 83 % 1012,3 hPa 0,0 l/m 12,2 km/h (2 Bft) W-NW 292 16,6 C 19,6 C
22.08.2012 09:31 19,9 C 83 % 1012,4 hPa 0,0 l/m 18,0 km/h (3 Bft) W 270 16,9 C 19,9 C
22.08.2012 09:36 20,1 C 82 % 1012,5 hPa 0,0 l/m 14,0 km/h (3 Bft) W 270 16,9 C 20,1 C
22.08.2012 09:41 20,2 C 80 % 1012,3 hPa 0,0 l/m 6,8 km/h (2 Bft) NW 315 16,6 C 20,2 C
22.08.2012 09:46 20,3 C 79 % 1012,3 hPa 0,0 l/m 9,0 km/h (2 Bft) W 270 16,5 C 20,3 C
22.08.2012 09:51 20,4 C 78 % 1012,4 hPa 0,0 l/m 9,7 km/h (2 Bft) W 270 16,4 C 20,4 C
22.08.2012 09:56 20,5 C 77 % 1012,6 hPa 0,0 l/m 5,0 km/h (1 Bft) W-SW 247 16,3 C 20,5 C
22.08.2012 10:01 20,5 C 74 % 1012,7 hPa 0,0 l/m 14,8 km/h (3 Bft) NW 315 15,7 C 20,5 C
22.08.2012 10:06 20,4 C 74 % 1012,8 hPa 0,0 l/m 29,5 km/h (5 Bft) W 270 15,6 C 20,4 C
22.08.2012 10:11 20,6 C 75 % 1012,8 hPa 0,0 l/m 14,0 km/h (3 Bft) W 270 16,0 C 20,6 C
22.08.2012 10:16 20,9 C 75 % 1012,9 hPa 0,0 l/m 6,8 km/h (2 Bft) NW 315 16,3 C 20,9 C
22.08.2012 10:21 21,1 C 73 % 1012,8 hPa 0,0 l/m 18,0 km/h (3 Bft) W 270 16,1 C 21,1 C
22.08.2012 10:26 21,2 C 72 % 1012,8 hPa 0,0 l/m 6,1 km/h (2 Bft) W 270 15,9 C 21,2 C
22.08.2012 10:31 21,3 C 72 % 1012,9 hPa 0,0 l/m 20,9 km/h (4 Bft) NW 315 16,0 C 21,3 C
22.08.2012 10:36 21,6 C 71 % 1012,9 hPa 0,0 l/m 20,2 km/h (4 Bft) NW 315 16,1 C 21,6 C
22.08.2012 10:41 21,6 C 68 % 1013,1 hPa 0,0 l/m 14,4 km/h (3 Bft) W-NW 292 15,4 C 21,6 C
22.08.2012 10:46 21,6 C 68 % 1013,3 hPa 0,0 l/m 10,4 km/h (2 Bft) W-SW 247 15,4 C 21,6 C
22.08.2012 10:51 21,8 C 68 % 1013,4 hPa 0,0 l/m 18,7 km/h (3 Bft) W-SW 247 15,6 C 21,8 C
22.08.2012 10:56 21,8 C 67 % 1013,2 hPa 0,0 l/m 7,6 km/h (2 Bft) W-NW 292 15,4 C 21,8 C
22.08.2012 11:01 21,8 C 68 % 1013,1 hPa 0,0 l/m 12,6 km/h (3 Bft) W 270 15,6 C 21,8 C
22.08.2012 11:06 21,8 C 67 % 1013,2 hPa 0,0 l/m 9,0 km/h (2 Bft) W-NW 292 15,4 C 21,8 C
22.08.2012 11:11 21,8 C 68 % 1013,4 hPa 0,0 l/m 6,1 km/h (2 Bft) N-NW 337 15,6 C 21,8 C
22.08.2012 11:16 21,9 C 67 % 1013,3 hPa 0,0 l/m 17,3 km/h (3 Bft) W-SW 247 15,5 C 21,9 C
22.08.2012 11:21 22,1 C 66 % 1013,4 hPa 0,0 l/m 24,5 km/h (4 Bft) W 270 15,4 C 22,1 C
22.08.2012 11:26 22,2 C 65 % 1013,3 hPa 0,0 l/m 18,0 km/h (3 Bft) NW 315 15,3 C 22,2 C
22.08.2012 11:31 22,3 C 63 % 1013,2 hPa 0,0 l/m 20,9 km/h (4 Bft) W-NW 292 14,9 C 22,3 C
22.08.2012 11:36 22,4 C 63 % 1013,4 hPa 0,0 l/m 9,4 km/h (2 Bft) W 270 15,0 C 22,4 C
22.08.2012 11:41 22,5 C 63 % 1013,4 hPa 0,0 l/m 19,4 km/h (3 Bft) SW 225 15,1 C 22,5 C
22.08.2012 11:46 22,9 C 62 % 1013,4 hPa 0,0 l/m 11,9 km/h (2 Bft) W-NW 292 15,2 C 22,9 C
22.08.2012 11:51 23,0 C 61 % 1013,5 hPa 0,0 l/m 31,7 km/h (5 Bft) W 270 15,1 C 23,0 C
22.08.2012 11:56 23,1 C 60 % 1013,7 hPa 0,0 l/m 35,3 km/h (5 Bft) W-SW 247 14,9 C 23,1 C
22.08.2012 12:01 23,1 C 60 % 1013,6 hPa 0,0 l/m 5,4 km/h (1 Bft) W-NW 292 14,9 C 23,1 C
22.08.2012 12:06 23,1 C 61 % 1013,5 hPa 0,0 l/m 9,0 km/h (2 Bft) NW 315 15,2 C 23,1 C
22.08.2012 12:11 23,2 C 61 % 1013,6 hPa 0,0 l/m 10,8 km/h (2 Bft) W 270 15,3 C 23,2 C
22.08.2012 12:16 23,4 C 61 % 1013,7 hPa 0,0 l/m 11,9 km/h (2 Bft) W-NW 292 15,4 C 23,4 C
22.08.2012 12:21 23,4 C 59 % 1013,8 hPa 0,0 l/m 11,9 km/h (2 Bft) W 270 14,9 C 23,4 C
22.08.2012 12:26 23,4 C 57 % 1014,0 hPa 0,0 l/m 20,2 km/h (4 Bft) W-NW 292 14,4 C 23,4 C
22.08.2012 12:31 23,3 C 58 % 1013,7 hPa 0,0 l/m 5,0 km/h (1 Bft) W-NW 292 14,6 C 23,3 C
22.08.2012 12:36 23,3 C 58 % 1013,7 hPa 0,0 l/m 16,9 km/h (3 Bft) W 270 14,6 C 23,3 C
22.08.2012 12:41 23,4 C 57 % 1013,8 hPa 0,0 l/m 17,6 km/h (3 Bft) W-NW 292 14,4 C 23,4 C
22.08.2012 12:46 23,8 C 56 % 1013,9 hPa 0,0 l/m 25,6 km/h (4 Bft) W-SW 247 14,5 C 23,8 C
22.08.2012 12:51 23,9 C 54 % 1013,9 hPa 0,0 l/m 8,6 km/h (2 Bft) W-NW 292 14,0 C 23,9 C
22.08.2012 12:56 24,1 C 54 % 1013,9 hPa 0,0 l/m 3,6 km/h (1 Bft) W-NW 292 14,2 C 24,1 C
22.08.2012 13:01 24,2 C 53 % 1013,9 hPa 0,0 l/m 11,9 km/h (2 Bft) W 270 14,0 C 24,2 C
22.08.2012 13:06 24,2 C 53 % 1013,8 hPa 0,0 l/m 4,3 km/h (1 Bft) W-NW 292 14,0 C 24,2 C
22.08.2012 13:11 24,4 C 53 % 1013,8 hPa 0,0 l/m 6,5 km/h (2 Bft) NW 315 14,2 C 24,4 C
22.08.2012 13:16 24,6 C 52 % 1013,8 hPa 0,0 l/m 9,4 km/h (2 Bft) W-NW 292 14,1 C 24,6 C
22.08.2012 13:21 24,9 C 51 % 1014,0 hPa 0,0 l/m 8,6 km/h (2 Bft) W-NW 292 14,1 C 24,9 C
22.08.2012 13:26 25,1 C 52 % 1014,2 hPa 0,0 l/m 15,1 km/h (3 Bft) W 270 14,5 C 25,1 C
22.08.2012 13:31 24,9 C 51 % 1014,1 hPa 0,0 l/m 11,2 km/h (2 Bft) W-NW 292 14,1 C 24,9 C
22.08.2012 13:36 24,9 C 52 % 1014,1 hPa 0,0 l/m 16,2 km/h (3 Bft) W 270 14,4 C 24,9 C
22.08.2012 13:41 24,9 C 52 % 1014,1 hPa 0,0 l/m 9,0 km/h (2 Bft) W-SW 247 14,4 C 24,9 C
22.08.2012 13:46 24,8 C 52 % 1014,2 hPa 0,0 l/m 9,7 km/h (2 Bft) NW 315 14,3 C 24,8 C
22.08.2012 13:51 24,5 C 50 % 1014,1 hPa 0,0 l/m 25,9 km/h (4 Bft) W-NW 292 13,4 C 24,5 C
22.08.2012 13:56 24,1 C 50 % 1014,0 hPa 0,0 l/m 13,3 km/h (3 Bft) W-NW 292 13,0 C 24,1 C
22.08.2012 14:01 23,8 C 51 % 1014,1 hPa 0,0 l/m 2,5 km/h (1 Bft) W-SW 247 13,0 C 23,8 C
22.08.2012 14:06 23,9 C 51 % 1014,0 hPa 0,0 l/m 4,0 km/h (1 Bft) W-NW 292 13,1 C 23,9 C
22.08.2012 14:11 24,1 C 51 % 1013,9 hPa 0,0 l/m 14,4 km/h (3 Bft) NW 315 13,3 C 24,1 C
22.08.2012 14:16 24,4 C 50 % 1013,9 hPa 0,0 l/m 12,6 km/h (3 Bft) W-SW 247 13,3 C 24,4 C
22.08.2012 14:21 24,8 C 49 % 1014,0 hPa 0,0 l/m 15,5 km/h (3 Bft) N-NW 337 13,3 C 24,8 C
22.08.2012 14:26 24,9 C 48 % 1013,9 hPa 0,0 l/m 13,3 km/h (3 Bft) W-NW 292 13,1 C 24,9 C
22.08.2012 14:31 24,9 C 47 % 1014,0 hPa 0,0 l/m 15,1 km/h (3 Bft) W-NW 292 12,8 C 24,9 C
22.08.2012 14:36 25,0 C 47 % 1014,2 hPa 0,0 l/m 21,6 km/h (4 Bft) W-SW 247 12,9 C 25,0 C
22.08.2012 14:41 25,4 C 46 % 1014,1 hPa 0,0 l/m 15,5 km/h (3 Bft) W 270 12,9 C 25,4 C
22.08.2012 14:46 25,1 C 46 % 1014,1 hPa 0,0 l/m 11,9 km/h (2 Bft) W-NW 292 12,7 C 25,1 C
22.08.2012 14:51 24,6 C 47 % 1014,0 hPa 0,0 l/m 10,4 km/h (2 Bft) W 270 12,5 C 24,6 C
22.08.2012 14:56 24,3 C 48 % 1014,2 hPa 0,0 l/m 16,9 km/h (3 Bft) N-NW 337 12,6 C 24,3 C
22.08.2012 15:01 24,1 C 49 % 1014,0 hPa 0,0 l/m 5,4 km/h (1 Bft) N 360 12,7 C 24,1 C
22.08.2012 15:06 24,1 C 49 % 1014,2 hPa 0,0 l/m 19,8 km/h (3 Bft) W-NW 292 12,7 C 24,1 C
22.08.2012 15:11 24,1 C 49 % 1014,1 hPa 0,0 l/m 5,0 km/h (1 Bft) W-NW 292 12,7 C 24,1 C
22.08.2012 15:16 24,1 C 49 % 1014,2 hPa 0,0 l/m 6,1 km/h (2 Bft) W-NW 292 12,7 C 24,1 C
22.08.2012 15:21 23,9 C 49 % 1014,2 hPa 0,0 l/m 8,3 km/h (2 Bft) W-NW 292 12,5 C 23,9 C
22.08.2012 15:26 23,9 C 49 % 1014,1 hPa 0,0 l/m 6,8 km/h (2 Bft) W 270 12,5 C 23,9 C
22.08.2012 15:31 23,9 C 49 % 1014,1 hPa 0,0 l/m 18,4 km/h (3 Bft) N-NW 337 12,5 C 23,9 C
22.08.2012 15:36 24,0 C 49 % 1014,2 hPa 0,0 l/m 12,2 km/h (2 Bft) NW 315 12,6 C 24,0 C
22.08.2012 15:41 23,9 C 49 % 1014,1 hPa 0,0 l/m 23,0 km/h (4 Bft) NW 315 12,5 C 23,9 C
22.08.2012 15:46 24,1 C 49 % 1014,2 hPa 0,0 l/m 4,0 km/h (1 Bft) S-SW 202 12,7 C 24,1 C
22.08.2012 15:51 24,4 C 48 % 1014,2 hPa 0,0 l/m 11,5 km/h (2 Bft) SW 225 12,7 C 24,4 C
22.08.2012 15:56 24,6 C 48 % 1014,1 hPa 0,0 l/m 10,1 km/h (2 Bft) W 270 12,8 C 24,6 C
22.08.2012 16:01 24,9 C 48 % 1014,1 hPa 0,0 l/m 16,9 km/h (3 Bft) W 270 13,1 C 24,9 C
22.08.2012 16:06 25,1 C 47 % 1014,0 hPa 0,0 l/m 5,8 km/h (2 Bft) W 270 13,0 C 25,1 C
22.08.2012 16:11 25,2 C 47 % 1014,2 hPa 0,0 l/m 2,9 km/h (1 Bft) S-SW 202 13,1 C 25,2 C
22.08.2012 16:16 24,9 C 46 % 1014,0 hPa 0,0 l/m 14,4 km/h (3 Bft) W-NW 292 12,5 C 24,9 C
22.08.2012 16:21 24,9 C 46 % 1014,0 hPa 0,0 l/m 10,8 km/h (2 Bft) W-NW 292 12,5 C 24,9 C
22.08.2012 16:26 25,3 C 45 % 1014,2 hPa 0,0 l/m 4,7 km/h (1 Bft) SW 225 12,5 C 25,3 C
22.08.2012 16:31 25,6 C 44 % 1014,1 hPa 0,0 l/m 16,6 km/h (3 Bft) W 270 12,4 C 25,6 C
22.08.2012 16:36 25,5 C 45 % 1014,1 hPa 0,0 l/m 7,2 km/h (2 Bft) W-NW 292 12,7 C 25,5 C
22.08.2012 16:41 25,3 C 45 % 1014,2 hPa 0,0 l/m 15,8 km/h (3 Bft) NW 315 12,5 C 25,3 C
22.08.2012 16:46 25,2 C 46 % 1014,1 hPa 0,0 l/m 11,5 km/h (2 Bft) W-NW 292 12,7 C 25,2 C
22.08.2012 16:51 24,9 C 46 % 1014,1 hPa 0,0 l/m 4,0 km/h (1 Bft) W-NW 292 12,5 C 24,9 C
22.08.2012 16:56 24,4 C 47 % 1014,1 hPa 0,0 l/m 6,8 km/h (2 Bft) NW 315 12,3 C 24,4 C
22.08.2012 17:01 24,1 C 48 % 1014,0 hPa 0,0 l/m 6,5 km/h (2 Bft) W 270 12,4 C 24,1 C
22.08.2012 17:06 23,9 C 48 % 1014,1 hPa 0,0 l/m 7,2 km/h (2 Bft) NW 315 12,2 C 23,9 C
22.08.2012 17:11 23,7 C 49 % 1014,3 hPa 0,0 l/m 15,1 km/h (3 Bft) NW 315 12,3 C 23,7 C
22.08.2012 17:16 23,4 C 50 % 1014,4 hPa 0,0 l/m 11,9 km/h (2 Bft) W-NW 292 12,4 C 23,4 C
22.08.2012 17:21 23,3 C 51 % 1014,4 hPa 0,0 l/m 16,9 km/h (3 Bft) W-NW 292 12,6 C 23,3 C
22.08.2012 17:26 23,0 C 52 % 1014,3 hPa 0,0 l/m 5,8 km/h (2 Bft) NW 315 12,6 C 23,0 C
22.08.2012 17:31 22,9 C 52 % 1014,4 hPa 0,0 l/m 4,0 km/h (1 Bft) W-NW 292 12,5 C 22,9 C
22.08.2012 17:36 22,8 C 53 % 1014,5 hPa 0,0 l/m 11,9 km/h (2 Bft) NW 315 12,7 C 22,8 C
22.08.2012 17:41 22,9 C 53 % 1014,5 hPa 0,0 l/m 14,8 km/h (3 Bft) NW 315 12,8 C 22,9 C
22.08.2012 17:46 23,1 C 52 % 1014,5 hPa 0,0 l/m 6,1 km/h (2 Bft) W 270 12,7 C 23,1 C
22.08.2012 17:51 23,3 C 52 % 1014,4 hPa 0,0 l/m 5,4 km/h (1 Bft) NW 315 12,9 C 23,3 C
22.08.2012 17:56 23,4 C 51 % 1014,5 hPa 0,0 l/m 14,8 km/h (3 Bft) NW 315 12,7 C 23,4 C
22.08.2012 18:01 23,5 C 50 % 1014,6 hPa 0,0 l/m 8,6 km/h (2 Bft) W-NW 292 12,5 C 23,5 C
22.08.2012 18:06 23,6 C 49 % 1014,5 hPa 0,0 l/m 5,8 km/h (2 Bft) NW 315 12,2 C 23,6 C
22.08.2012 18:11 23,6 C 49 % 1014,5 hPa 0,0 l/m 15,8 km/h (3 Bft) NW 315 12,2 C 23,6 C
22.08.2012 18:16 23,5 C 49 % 1014,6 hPa 0,0 l/m 12,2 km/h (2 Bft) W-NW 292 12,2 C 23,5 C
22.08.2012 18:21 23,2 C 49 % 1014,6 hPa 0,0 l/m 8,3 km/h (2 Bft) W-NW 292 11,9 C 23,2 C
22.08.2012 18:26 22,9 C 50 % 1014,6 hPa 0,0 l/m 7,2 km/h (2 Bft) NW 315 11,9 C 22,9 C
22.08.2012 18:31 22,8 C 51 % 1014,6 hPa 0,0 l/m 4,7 km/h (1 Bft) NW 315 12,1 C 22,8 C
22.08.2012 18:36 22,7 C 51 % 1014,5 hPa 0,0 l/m 2,2 km/h (1 Bft) W-NW 292 12,0 C 22,7 C
22.08.2012 18:41 22,7 C 52 % 1014,5 hPa 0,0 l/m 2,5 km/h (1 Bft) W-NW 292 12,3 C 22,7 C
22.08.2012 18:46 22,7 C 52 % 1014,5 hPa 0,0 l/m 6,8 km/h (2 Bft) NW 315 12,3 C 22,7 C
22.08.2012 18:51 22,8 C 52 % 1014,5 hPa 0,0 l/m 4,0 km/h (1 Bft) W 270 12,4 C 22,8 C
22.08.2012 18:56 22,8 C 51 % 1014,6 hPa 0,0 l/m 19,8 km/h (3 Bft) NW 315 12,1 C 22,8 C
22.08.2012 19:01 22,6 C 52 % 1014,6 hPa 0,0 l/m 12,2 km/h (2 Bft) W-NW 292 12,2 C 22,6 C
22.08.2012 19:06 22,5 C 52 % 1014,5 hPa 0,0 l/m 9,0 km/h (2 Bft) W-NW 292 12,1 C 22,5 C
22.08.2012 19:11 22,4 C 52 % 1014,5 hPa 0,0 l/m 8,3 km/h (2 Bft) W 270 12,1 C 22,4 C
22.08.2012 19:16 22,2 C 51 % 1014,6 hPa 0,0 l/m 4,0 km/h (1 Bft) NW 315 11,6 C 22,2 C
22.08.2012 19:21 22,1 C 50 % 1014,6 hPa 0,0 l/m 3,6 km/h (1 Bft) W 270 11,2 C 22,1 C
22.08.2012 19:26 21,9 C 50 % 1014,7 hPa 0,0 l/m 9,4 km/h (2 Bft) W 270 11,0 C 21,9 C
22.08.2012 19:31 21,8 C 51 % 1014,7 hPa 0,0 l/m 7,9 km/h (2 Bft) W-SW 247 11,2 C 21,8 C
22.08.2012 19:36 21,6 C 51 % 1014,8 hPa 0,0 l/m 5,8 km/h (2 Bft) W-SW 247 11,0 C 21,6 C
22.08.2012 19:41 21,5 C 51 % 1014,8 hPa 0,0 l/m 5,0 km/h (1 Bft) N 360 10,9 C 21,5 C
22.08.2012 19:46 21,3 C 51 % 1014,8 hPa 0,0 l/m 16,9 km/h (3 Bft) W 270 10,7 C 21,3 C
22.08.2012 19:51 21,3 C 52 % 1014,8 hPa 0,0 l/m 8,6 km/h (2 Bft) W 270 11,0 C 21,3 C
22.08.2012 19:56 21,1 C 52 % 1014,8 hPa 0,0 l/m 9,4 km/h (2 Bft) W-NW 292 10,9 C 21,1 C
22.08.2012 20:01 21,0 C 53 % 1014,7 hPa 0,0 l/m 9,4 km/h (2 Bft) W 270 11,0 C 21,0 C
22.08.2012 20:06 20,9 C 53 % 1014,8 hPa 0,0 l/m 4,0 km/h (1 Bft) W-NW 292 11,0 C 20,9 C
22.08.2012 20:11 20,8 C 54 % 1014,8 hPa 0,0 l/m 2,9 km/h (1 Bft) W-SW 247 11,1 C 20,8 C
22.08.2012 20:16 20,7 C 54 % 1014,8 hPa 0,0 l/m 3,2 km/h (1 Bft) W 270 11,1 C 20,7 C
22.08.2012 20:21 20,6 C 55 % 1014,7 hPa 0,0 l/m 5,0 km/h (1 Bft) W-NW 292 11,2 C 20,6 C
22.08.2012 20:26 20,4 C 55 % 1014,8 hPa 0,0 l/m 6,5 km/h (2 Bft) W-NW 292 11,1 C 20,4 C
22.08.2012 20:31 20,4 C 55 % 1014,9 hPa 0,0 l/m 4,7 km/h (1 Bft) NW 315 11,1 C 20,4 C
22.08.2012 20:36 20,3 C 56 % 1015,0 hPa 0,0 l/m 7,2 km/h (2 Bft) W-NW 292 11,2 C 20,3 C
22.08.2012 20:41 20,2 C 56 % 1014,9 hPa 0,0 l/m 3,6 km/h (1 Bft) W 270 11,1 C 20,2 C
22.08.2012 20:46 20,1 C 57 % 1014,9 hPa 0,0 l/m 2,2 km/h (1 Bft) W 270 11,3 C 20,1 C
22.08.2012 20:51 20,1 C 57 % 1015,0 hPa 0,0 l/m 0,0 km/h (0 Bft) W-NW 292 11,3 C 20,1 C
22.08.2012 20:56 20,0 C 57 % 1015,2 hPa 0,0 l/m 0,0 km/h (0 Bft) W-NW 292 11,2 C 20,0 C
22.08.2012 21:01 19,9 C 58 % 1015,1 hPa 0,0 l/m 1,8 km/h (1 Bft) W 270 11,4 C 19,9 C
22.08.2012 21:06 19,9 C 58 % 1015,2 hPa 0,0 l/m 1,8 km/h (1 Bft) W 270 11,4 C 19,9 C
22.08.2012 21:11 19,8 C 58 % 1015,2 hPa 0,0 l/m 0,0 km/h (0 Bft) W 270 11,3 C 19,8 C
22.08.2012 21:16 19,6 C 59 % 1015,2 hPa 0,0 l/m 0,0 km/h (0 Bft) W 270 11,4 C 19,6 C
22.08.2012 21:21 19,6 C 59 % 1015,3 hPa 0,0 l/m 1,1 km/h (1 Bft) W 270 11,4 C 19,6 C
22.08.2012 21:26 19,4 C 61 % 1015,4 hPa 0,0 l/m 8,3 km/h (2 Bft) N 360 11,7 C 19,4 C
22.08.2012 21:31 19,1 C 61 % 1015,4 hPa 0,0 l/m 0,0 km/h (0 Bft) N 360 11,4 C 19,1 C
22.08.2012 21:36 19,0 C 61 % 1015,4 hPa 0,0 l/m 0,0 km/h (0 Bft) N 360 11,3 C 19,0 C
22.08.2012 21:41 19,0 C 61 % 1015,5 hPa 0,0 l/m 0,0 km/h (0 Bft) N 360 11,3 C 19,0 C
22.08.2012 21:46 19,0 C 62 % 1015,5 hPa 0,0 l/m 2,2 km/h (1 Bft) W 270 11,6 C 19,0 C
22.08.2012 21:51 19,0 C 63 % 1015,2 hPa 0,0 l/m 2,9 km/h (1 Bft) W 270 11,8 C 19,0 C
22.08.2012 21:56 19,1 C 63 % 1015,4 hPa 0,0 l/m 0,0 km/h (0 Bft) W 270 11,9 C 19,1 C
22.08.2012 22:01 19,1 C 63 % 1015,3 hPa 0,0 l/m 1,8 km/h (1 Bft) W 270 11,9 C 19,1 C
22.08.2012 22:06 19,1 C 63 % 1015,5 hPa 0,0 l/m 1,1 km/h (1 Bft) W 270 11,9 C 19,1 C
22.08.2012 22:11 19,1 C 63 % 1015,5 hPa 0,0 l/m 0,0 km/h (0 Bft) W 270 11,9 C 19,1 C
22.08.2012 22:16 19,1 C 64 % 1015,5 hPa 0,0 l/m 0,0 km/h (0 Bft) W-SW 247 12,1 C 19,1 C
22.08.2012 22:21 19,0 C 64 % 1015,5 hPa 0,0 l/m 9,7 km/h (2 Bft) W-SW 247 12,0 C 19,0 C
22.08.2012 22:26 18,9 C 64 % 1015,6 hPa 0,0 l/m 7,2 km/h (2 Bft) W 270 11,9 C 18,9 C
22.08.2012 22:31 18,9 C 64 % 1015,5 hPa 0,0 l/m 7,9 km/h (2 Bft) W 270 11,9 C 18,9 C
22.08.2012 22:36 18,9 C 64 % 1015,5 hPa 0,0 l/m 0,0 km/h (0 Bft) W 270 11,9 C 18,9 C
22.08.2012 22:41 18,9 C 64 % 1015,6 hPa 0,0 l/m 0,0 km/h (0 Bft) W 270 11,9 C 18,9 C
22.08.2012 22:46 18,9 C 64 % 1015,5 hPa 0,0 l/m 7,2 km/h (2 Bft) SW 225 11,9 C 18,9 C
22.08.2012 22:51 18,9 C 64 % 1015,4 hPa 0,0 l/m 0,0 km/h (0 Bft) W-SW 247 11,9 C 18,9 C
22.08.2012 22:56 18,8 C 65 % 1015,4 hPa 0,0 l/m 2,9 km/h (1 Bft) W-SW 247 12,1 C 18,8 C
22.08.2012 23:01 18,7 C 65 % 1015,4 hPa 0,0 l/m 3,6 km/h (1 Bft) W-SW 247 12,0 C 18,7 C
22.08.2012 23:06 18,6 C 66 % 1015,3 hPa 0,0 l/m 1,4 km/h (1 Bft) W-SW 247 12,1 C 18,6 C
22.08.2012 23:11 18,5 C 66 % 1015,3 hPa 0,0 l/m 1,4 km/h (1 Bft) W 270 12,0 C 18,5 C
22.08.2012 23:16 18,4 C 66 % 1015,3 hPa 0,0 l/m 4,3 km/h (1 Bft) W 270 11,9 C 18,4 C
22.08.2012 23:21 18,3 C 67 % 1015,3 hPa 0,0 l/m 5,8 km/h (2 Bft) W 270 12,1 C 18,3 C
22.08.2012 23:26 18,3 C 67 % 1015,5 hPa 0,0 l/m 8,3 km/h (2 Bft) W-SW 247 12,1 C 18,3 C
22.08.2012 23:31 18,2 C 67 % 1015,5 hPa 0,0 l/m 2,5 km/h (1 Bft) W-NW 292 12,0 C 18,2 C
22.08.2012 23:36 18,1 C 67 % 1015,5 hPa 0,0 l/m 4,7 km/h (1 Bft) W-SW 247 11,9 C 18,1 C
22.08.2012 23:41 18,1 C 66 % 1015,3 hPa 0,0 l/m 4,7 km/h (1 Bft) W 270 11,6 C 18,1 C
22.08.2012 23:46 18,1 C 66 % 1015,6 hPa 0,0 l/m 1,8 km/h (1 Bft) W-NW 292 11,6 C 18,1 C
22.08.2012 23:51 17,9 C 66 % 1015,6 hPa 0,0 l/m 1,4 km/h (1 Bft) W-NW 292 11,5 C 17,9 C
22.08.2012 23:56 17,9 C 65 % 1015,7 hPa 0,0 l/m 1,4 km/h (1 Bft) W 270 11,2 C 17,9 C
_ Min-Zeit 23:51 16:31 05:06 - 01:36 - - 19:46 23:51
Minimum _ 17,9 C 44 % 1010,3 hPa - 0,0 km/h (0 Bft) - - 10,7 C 17,9 C
_ Max-Zeit 16:31 06:11 23:56 00:01 11:56 - - 08:01 16:31
Maximum _ 25,6 C 92 % 1015,7 hPa 1,0 l/m 35,3 km/h
W-SW (5 Bft)
- - 17,5 C 25,6 C
Durchschnitt _ 20,8 C 70 % 1013,2 hPa #1,6 l/m 7,8 km/h (2 Bft) W - 14,5 C 20,8 C
(c) by David Heller